RH
35 36 36 31 26 24 26 19 19 28 34 32 28 27 26 26 21 20 23 23 21 21 22 20 16 16 17 28 25 28 46 48 39 37 35 28 30 25 24 27 26 26 27 25 24
34 34 34 29 22 22 22 19 27 28 27 28 28 26 24 24 24 21 20 20 19 19 17 20 22 19 28 28 29 41 53 42 33 34 34 31 29 29 30 31 31 28 26 25 25
28 33 32 26 20 21 19 24 26 26 30 31 28 25 25 27 26 22 19 18 17 17 17 20 18 24 31 29 30 33 43 34 33 30 28 31 31 28 32 37 31 32 31 27 28
25 32 32 24 20 20 21 24 25 27 26 23 23 22 23 27 30 19 20 18 16 16 16 16 23 28 36 37 30 38 32 31 31 28 26 30 30 32 32 32 29 29 27 28 31
30 30 30 20 19 20 22 23 26 27 25 21 19 18 21 25 22 20 19 17 16 16 17 22 24 28 33 32 30 36 32 28 28 28 29 28 33 32 31 28 25 26 27 30 31
31 28 26 17 18 21 23 27 24 21 20 20 22 22 21 28 18 18 18 16 17 17 17 18 23 26 30 31 35 31 29 28 26 26 26 29 30 25 26 25 28 29 31 31 32
31 27 21 18 23 27 26 24 20 20 20 18 19 19 22 22 18 18 15 15 17 17 19 18 18 23 27 30 25 26 32 30 29 29 27 26 30 30 24 24 28 31 32 31 33
28 27 18 20 24 24 25 20 21 20 19 19 19 21 23 18 18 17 16 14 15 16 16 17 17 25 26 26 27 33 34 43 32 28 27 30 44 27 22 25 27 30 32 32 34
27 26 18 20 22 25 21 22 18 17 17 17 20 18 22 17 17 17 17 18 15 15 16 16 17 27 26 34 37 34 41 41 35 28 30 35 42 29 24 25 28 31 32 32 33
27 24 18 21 25 23 23 22 18 16 18 18 16 20 18 18 16 16 16 16 17 14 16 17 29 34 31 36 42 31 28 38 40 33 33 39 37 31 26 26 29 33 33 34 36
28 24 24 25 24 24 21 21 23 24 17 23 21 21 17 16 16 17 18 16 16 17 20 22 32 31 25 23 23 24 23 31 35 28 31 37 39 35 30 27 31 34 34 33 35
25 25 25 26 26 23 28 30 32 22 24 18 18 18 18 18 22 20 18 18 19 22 19 28 30 24 22 22 22 23 18 29 32 31 30 31 38 35 32 30 33 32 30 31 36
26 26 27 26 24 29 27 34 33 20 26 21 18 20 20 18 24 24 22 22 21 24 28 31 23 21 19 27 27 29 27 28 24 32 29 31 40 40 32 32 30 27 28 34 39
35 30 28 26 28 26 33 37 31 24 32 25 22 19 18 19 27 19 19 21 22 26 24 25 25 24 22 28 28 29 26 24 27 32 40 32 47 42 40 39 34 32 36 38 40
33 29 26 26 30 36 38 32 21 26 38 22 22 16 18 25 22 21 18 20 25 26 26 31 28 30 28 28 27 28 25 26 29 34 32 38 47 47 43 44 40 36 33 37 43
33 28 31 31 35 38 34 28 26 33 36 27 21 21 21 24 23 20 22 22 22 23 29 28 24 28 28 27 28 27 31 30 32 42 52 41 41 48 48 41 36 32 32 38 45
33 30 27 29 44 34 30 29 40 38 21 28 27 22 26 28 26 25 31 36 39 35 32 30 29 28 24 28 26 33 35 43 36 52 50 40 39 43 37 35 33 31 35 42 51
32 31 30 29 30 28 31 38 36 26 29 24 24 25 28 28 27 28 31 41 37 38 40 33 32 32 27 27 29 33 31 37 32 39 34 26 34 43 35 31 28 31 39 47 54
33 34 32 31 29 27 41 49 43 33 26 26 25 28 30 27 26 29 40 41 41 37 39 34 35 28 29 27 24 24 31 25 30 30 34 34 40 34 33 32 29 34 42 52 54
37 38 38 30 28 34 46 45 40 33 33 29 30 29 31 30 28 29 36 38 38 31 31 32 35 30 31 27 26 22 20 27 34 34 37 36 39 43 44 38 33 35 46 52 54
37 52 41 30 31 53 51 40 38 32 33 32 36 28 31 31 30 34 42 41 37 37 32 30 33 29 28 31 29 31 28 23 26 36 36 43 39 30 42 36 34 43 47 56 56
48 56 34 27 43 60 52 36 36 34 31 32 35 37 34 38 39 39 43 42 34 32 31 31 38 37 29 24 23 27 25 24 37 31 34 36 37 28 34 33 35 44 52 55 53
63 55 35 35 49 58 40 42 45 36 39 34 38 37 33 39 43 40 48 33 32 39 39 36 38 40 32 31 25 27 26 22 25 28 32 35 38 29 29 32 33 54 57 56 49
66 48 55 57 54 49 42 42 45 40 38 35 37 34 34 37 37 45 53 45 32 40 36 38 42 36 33 29 28 30 25 23 26 36 34 35 29 32 32 32 47 58 61 60 45
69 66 53 48 39 39 39 41 46 42 38 35 36 37 35 38 38 42 52 48 40 48 39 38 42 37 37 37 32 32 32 32 31 30 31 29 28 30 32 33 51 60 61 59 37
57 54 59 53 42 40 43 38 42 44 40 38 40 35 36 38 40 40 45 47 41 39 33 39 40 36 34 24 23 27 30 34 34 32 33 29 31 28 29 48 60 68 63 58 30
48 43 54 54 44 44 46 39 41 46 43 42 40 40 41 40 36 33 35 36 35 37 40 42 44 40 39 39 41 46 37 32 27 27 26 29 27 30 36 49 64 71 63 39 24
Wind_Speed
7 7 8 9 10 10 11 12 12 12 10 9 8 7 7 12 21 23 15 12 15 16 16 13 6 12 14 7 9 5 5 5 4 4 6 6 6 2 8 14 12 7 7 15 22
6 6 8 9 10 11 12 13 11 11 12 11 7 5 7 11 8 25 19 16 15 14 14 16 8 20 5 7 6 6 5 6 4 7 10 8 9 6 6 10 7 6 17 22 23
6 7 8 9 10 13 13 13 15 13 9 5 4 6 8 9 5 8 18 15 13 13 12 11 3 9 7 6 7 5 6 6 8 15 12 8 7 2 13 7 5 6 7 19 23
6 7 8 10 12 14 14 15 12 7 5 5 6 7 10 5 5 14 16 17 14 13 10 7 6 6 6 7 5 8 7 6 7 6 5 4 5 7 7 6 8 12 16 19 18
6 7 10 12 14 16 15 12 6 5 5 7 8 9 4 7 3 14 13 15 13 23 21 6 11 6 6 6 17 14 7 7 11 13 9 12 7 7 7 8 16 17 16 14 16
6 10 12 14 16 15 12 8 7 7 8 9 11 10 6 12 9 11 13 15 16 20 24 16 9 11 8 5 6 7 13 9 8 7 7 10 6 5 4 8 8 9 8 13 17
10 14 15 15 15 13 10 8 7 7 7 7 7 13 13 4 9 9 9 13 12 19 19 13 9 7 6 7 5 14 8 6 5 8 5 12 4 4 6 7 8 8 8 11 16
14 16 16 15 14 11 9 8 5 5 5 6 6 8 4 5 10 11 10 12 13 13 12 16 21 10 6 9 5 5 4 3 6 7 7 4 3 5 7 8 8 7 7 7 11
16 17 17 15 12 11 11 6 7 5 4 5 3 6 3 4 7 10 7 5 3 10 14 17 13 6 3 6 3 2 2 3 3 10 5 7 3 6 7 7 7 7 7 7 7
16 17 17 14 12 12 6 7 16 13 4 4 7 7 5 4 5 9 8 6 2 1 3 2 6 5 4 4 2 3 3 3 4 6 7 5 3 6 6 6 7 7 6 7 7
15 15 15 11 12 6 6 2 5 7 15 6 1 6 2 8 7 14 13 6 2 4 3 6 8 2 3 2 4 5 3 3 1 2 3 6 8 8 7 6 7 5 5 5 6
16 14 15 10 9 5 6 4 2 3 4 7 8 5 5 5 5 18 19 4 5 4 3 7 3 4 5 5 3 4 2 3 2 4 2 3 5 8 7 4 6 6 2 3 4
15 14 11 10 5 2 5 5 4 2 5 2 3 4 3 6 4 9 9 5 7 7 7 6 3 6 1 6 6 4 3 3 2 3 2 2 0 7 4 6 5 3 2 5 6
13 12 10 3 3 3 4 3 3 2 5 7 5 4 4 2 5 4 7 1 6 4 5 5 5 4 4 3 3 3 1 1 3 2 3 4 4 4 5 6 6 3 6 5 6
10 9 5 6 3 4 2 4 5 1 4 3 3 2 3 6 2 7 6 7 4 4 3 1 4 6 5 2 2 6 3 3 3 2 1 2 2 3 7 5 5 6 5 5 6
8 8 5 4 4 2 2 7 1 5 1 1 1 1 2 5 4 2 6 8 3 3 7 2 1 2 2 4 4 7 3 1 1 1 2 5 4 2 4 5 5 3 4 6 6
7 5 4 4 1 5 4 3 4 5 1 2 2 2 4 5 4 3 4 7 5 3 3 0 1 2 3 4 4 7 6 4 5 3 5 5 2 3 4 6 6 5 6 5 6
6 3 3 5 6 4 2 4 7 3 2 1 1 3 4 1 2 5 4 4 6 4 2 1 4 5 6 3 2 3 3 4 4 3 5 1 4 3 5 6 5 7 7 6 6
7 4 2 4 5 3 5 5 3 1 2 3 0 1 1 1 2 4 5 2 2 4 4 4 1 0 1 1 1 4 4 3 1 2 2 2 1 3 4 5 4 5 6 5 5
5 3 3 4 4 2 5 4 3 3 4 2 2 2 3 4 2 3 2 3 1 1 2 1 3 2 1 1 2 1 2 2 3 4 5 5 2 4 8 7 5 4 5 5 5
3 3 3 3 2 5 4 3 3 1 2 4 3 2 3 3 3 3 3 3 4 5 4 3 2 3 3 1 1 2 1 1 2 4 3 4 6 4 8 7 5 6 5 6 6
2 2 3 2 4 3 2 2 1 1 3 3 4 3 3 4 4 3 2 1 4 2 2 2 3 3 3 1 1 1 2 4 4 5 3 2 6 5 8 6 7 6 6 6 6
2 1 2 3 3 2 1 3 3 1 3 2 2 4 3 2 2 2 3 1 3 2 2 2 0 4 6 2 1 2 3 3 3 3 5 3 6 5 4 6 4 8 6 5 4
2 2 4 4 2 7 5 3 3 3 2 3 3 2 2 2 3 3 2 2 0 1 1 1 1 5 5 6 2 4 4 4 5 3 3 7 4 5 5 6 7 6 5 5 6
3 2 3 2 1 4 4 5 5 3 2 2 2 1 2 3 1 2 3 1 1 1 1 3 2 2 7 10 4 7 7 8 9 6 6 3 4 4 7 6 6 7 5 6 5
2 3 3 1 2 5 2 4 4 3 2 2 3 2 2 3 1 3 3 4 3 2 1 1 3 3 5 1 2 7 8 8 7 5 10 16 15 6 5 8 6 6 5 5 4
1 2 4 3 2 4 3 4 5 8 3 4 1 4 3 4 3 3 3 4 3 5 4 3 1 3 5 7 8 7 5 7 4 6 5 5 4 8 5 6 6 5 5 5 4
Wind_Direction
93 96 99 97 98 107 109 107 110 107 108 104 88 70 53 45 62 48 37 354 349 355 1 14 4 3 30 29 41 67 63 49 111 126 118 150 111 51 79 80 61 72 94 80 61
98 91 91 94 102 110 114 119 113 113 105 93 74 43 30 14 61 39 8 6 3 4 10 17 31 54 35 16 29 70 71 41 56 125 132 104 117 103 83 68 57 65 69 71 61
117 99 98 100 107 118 124 123 120 108 94 65 21 360 2 4 56 360 2 10 6 357 333 319 355 69 46 28 5 43 109 118 71 103 97 96 57 80 124 55 80 99 74 69 64
122 108 112 110 120 127 131 129 123 101 58 43 16 15 23 42 68 341 4 5 7 2 359 345 42 55 69 45 15 95 74 96 118 96 89 84 78 72 76 130 118 97 87 75 72
127 121 126 123 130 130 130 132 117 79 52 37 26 15 41 48 34 358 15 18 37 55 58 96 84 104 83 102 70 79 93 69 98 84 74 94 97 112 108 128 113 100 92 88 80
136 137 133 129 130 129 130 118 99 85 67 46 36 62 52 75 10 359 23 37 45 63 50 72 103 101 89 53 69 113 101 107 100 110 136 120 141 90 170 139 123 113 110 99 86
135 140 134 133 129 127 116 108 101 69 59 52 44 73 59 64 16 19 54 49 63 74 61 107 135 83 120 91 114 123 104 115 152 166 131 132 62 113 171 155 133 126 118 100 90
136 139 134 134 131 123 114 113 74 50 47 26 39 87 84 83 23 51 70 63 64 79 84 91 90 86 86 114 108 88 107 133 209 163 177 133 191 187 183 137 137 121 110 97 101
137 139 135 137 135 125 124 102 65 22 26 2 38 105 37 17 24 21 24 358 60 88 76 97 75 93 81 107 67 168 256 144 162 196 148 191 146 200 184 146 137 134 121 113 95
137 138 136 141 136 139 126 109 67 45 17 5 36 66 13 333 343 349 344 334 313 130 14 54 66 74 37 63 203 266 247 110 188 216 209 138 151 169 182 149 158 138 111 100 92
135 137 136 144 134 127 103 360 19 5 48 122 254 102 27 345 60 5 350 320 233 66 93 18 68 56 293 264 247 261 265 119 128 213 169 226 165 177 184 163 125 101 84 94 104
130 133 133 133 127 118 358 71 87 155 61 76 91 70 28 2 21 344 2 56 60 50 23 32 66 275 296 11 324 302 348 33 84 181 168 183 183 178 178 153 141 124 80 100 86
125 132 131 119 111 27 71 94 55 48 100 345 81 62 318 42 52 323 16 336 89 64 50 107 241 290 43 35 19 28 76 37 304 185 316 15 88 170 182 121 142 164 199 96 95
121 129 135 89 74 117 63 28 4 351 80 328 348 357 355 104 31 339 7 140 30 119 117 86 342 346 26 72 40 324 117 323 281 117 258 146 283 220 169 169 177 198 94 103 74
121 116 116 46 58 60 17 348 350 94 65 335 352 312 55 86 240 338 360 36 59 34 70 260 22 9 39 322 11 245 180 205 211 224 26 225 97 317 134 209 203 119 118 98 79
132 111 102 67 69 41 317 330 9 48 63 34 359 247 78 29 16 336 25 31 68 61 43 98 328 72 273 285 242 286 327 73 26 98 355 211 158 195 199 206 120 152 92 81 74
146 128 89 59 35 331 321 24 55 79 266 67 49 39 89 19 29 52 61 34 53 54 29 64 30 350 3 337 356 14 32 356 353 358 237 186 118 268 146 111 139 134 98 86 85
145 138 71 38 346 338 15 54 73 108 81 254 228 60 89 360 340 26 103 40 13 27 45 16 324 6 339 96 248 314 99 132 293 284 286 55 248 247 170 152 152 112 122 91 77
127 110 41 359 346 351 72 54 171 360 331 149 77 227 70 46 83 85 61 61 30 24 97 12 280 210 49 320 85 337 41 176 248 327 5 224 316 290 174 190 148 130 88 93 93
124 134 39 354 352 40 73 136 118 21 355 3 95 54 99 2 47 75 84 316 32 36 106 322 331 196 238 345 285 85 219 22 23 318 295 289 228 234 204 202 195 113 107 105 85
113 65 359 4 2 53 114 124 117 344 42 61 38 79 66 59 56 59 29 337 9 318 346 23 107 287 34 168 208 0 32 53 146 148 220 296 268 224 184 176 182 137 126 118 93
74 72 8 358 57 58 85 78 205 143 7 52 91 67 73 38 50 94 133 25 329 326 34 17 150 271 258 263 245 232 214 136 129 282 242 192 272 148 161 175 143 148 117 107 101
102 178 35 2 122 73 180 69 69 78 37 51 89 45 44 92 94 77 95 163 5 51 152 355 296 342 340 341 314 232 208 150 123 92 231 153 271 186 159 130 138 123 107 103 105
87 75 334 43 132 134 142 140 103 27 71 52 122 55 92 98 42 167 135 188 285 103 182 50 262 191 210 228 162 252 189 190 144 154 254 233 283 206 191 163 116 112 126 115 77
35 212 196 190 310 128 115 140 137 136 55 36 53 157 166 133 143 161 124 161 288 206 302 106 248 273 256 266 236 242 209 197 200 197 196 261 280 189 168 152 145 149 119 77 58
122 124 28 44 74 97 76 175 141 129 105 155 137 136 55 129 176 176 176 191 210 196 213 50 273 328 292 288 267 273 231 225 227 223 253 268 279 155 129 111 128 126 103 82 47
117 112 101 302 105 99 204 164 161 128 9 57 122 111 94 145 123 115 103 75 100 156 191 155 87 44 272 340 317 315 233 197 210 217 177 223 218 160 146 132 146 135 109 100 60